Weather History for Watford City, ND

Change the Weather History Date:

Friday, February 22, 2013

  Actual Average (KISN) Record (KISN)
Temperature  
Mean Temperature 23 °F 19 °F  
Max Temperature 32 °F 30 °F 61 °F (1958)
Min Temperature 14 °F 9 °F -28 °F (1910)
Degree Days  
Heating Degree Days 42 46  
Month to date heating degree days 1081  
Since 1 July heating degree days 6502  
Cooling Degree Days 0 0  
Month to date cooling degree days 0  
Year to date cooling degree days 0  
Moisture  
Dew Point 18 °F    
Average Humidity 82    
Maximum Humidity 93    
Minimum Humidity 64    
Precipitation  
Precipitation 0.00 in 0.02 in 0.70 in (1961)
Month to date precipitation 0.29  
Year to date precipitation 0.88  
Sea Level Pressure  
Sea Level Pressure 29.83 in    
Wind  
Wind Speed 8 mph (SE)    
Max Wind Speed 15 mph    
Max Gust Speed -    
Visibility 10 miles    
Events Snow    
T = Trace of Precipitation, MM = Missing Value Source: NWS Daily Summary

Daily Weather History Graph

Daily Weather History Graph

Search for Another Location

Airport:

Trip Planner

Search our weather history database for the weather conditions in past years. The results will help you decide how hot, cold, wet, or windy it might be!

Date:

Astronomy

Feb. 22, 2013 Rise Set
Actual Time 7:46 AM CST 6:27 PM CST
Civil Twilight 7:14 AM CST 6:58 PM CST
Nautical Twilight 6:39 AM CST 7:34 PM CST
Astronomical Twilight 6:03 AM CST 8:10 PM CST
Moon 3:32 PM CST (2/22) 5:42 AM CST (2/22)
Length of Visible Light 11h 43m
Length of Day
10h 41m
Waxing Gibbous, 90% of the Moon is Illuminated
Feb 22
Waxing Gibbous
Feb 25
Full
Mar 4
Last Quarter
Mar 11
New
Mar 19
First Quarter

Hourly Weather History & Observations

Time (CST) Temp. Windchill Dew Point Humidity Pressure Visibility Wind Dir Wind Speed Gust Speed Precip Events Conditions
12:15 AM 19.4 °F 6.6 °F 17.6 °F 93% 29.96 in 10.0 mi SE 12.7 mph - N/A   Mostly Cloudy
12:35 AM 19.4 °F 6.0 °F 17.6 °F 93% 29.95 in 10.0 mi SSE 13.8 mph - N/A   Mostly Cloudy
12:55 AM 19.4 °F 7.2 °F 15.8 °F 86% 29.94 in 10.0 mi SSE 11.5 mph - N/A   Overcast
1:15 AM 19.4 °F 12.8 °F 15.8 °F 86% 29.94 in 10.0 mi SSE 4.6 mph - N/A   Overcast
1:35 AM 19.4 °F 12.8 °F 15.8 °F 86% 29.94 in 10.0 mi SE 4.6 mph - N/A   Mostly Cloudy
1:55 AM 19.4 °F 10.4 °F 15.8 °F 86% 29.94 in 10.0 mi ESE 6.9 mph - N/A   Mostly Cloudy
2:15 AM 17.6 °F 8.2 °F 15.8 °F 93% 29.94 in 10.0 mi ESE 6.9 mph - N/A   Mostly Cloudy
2:35 AM 17.6 °F 9.3 °F 15.8 °F 93% 29.93 in 10.0 mi SE 5.8 mph - N/A   Overcast
2:55 AM 17.6 °F 8.2 °F 15.8 °F 93% 29.93 in 7.0 mi ESE 6.9 mph - N/A Snow Light Snow
3:15 AM 17.6 °F 7.3 °F 14.0 °F 86% 29.93 in 10.0 mi SE 8.1 mph - N/A Snow Light Snow
3:35 AM 15.8 °F 6.1 °F 14.0 °F 93% 29.92 in 10.0 mi ESE 6.9 mph - N/A   Mostly Cloudy
3:55 AM 15.8 °F 5.1 °F 14.0 °F 93% 29.91 in 10.0 mi ESE 8.1 mph - N/A   Partly Cloudy
4:15 AM 15.8 °F 10.2 °F 14.0 °F 93% 29.91 in 10.0 mi ESE 3.5 mph - N/A   Partly Cloudy
4:35 AM 17.6 °F 9.3 °F 14.0 °F 86% 29.91 in 10.0 mi SE 5.8 mph - N/A   Mostly Cloudy
4:55 AM 17.6 °F 8.2 °F 14.0 °F 86% 29.90 in 10.0 mi ESE 6.9 mph - N/A   Overcast
5:15 AM 15.8 °F 7.2 °F 14.0 °F 93% 29.90 in 10.0 mi East 5.8 mph - N/A   Overcast
5:35 AM 15.8 °F 5.1 °F 14.0 °F 93% 29.90 in 10.0 mi SE 8.1 mph - N/A   Overcast
5:55 AM 15.8 °F 5.1 °F 14.0 °F 93% 29.90 in 10.0 mi ESE 8.1 mph - N/A   Overcast
6:15 AM 15.8 °F 5.1 °F 14.0 °F 93% 29.91 in 10.0 mi SE 8.1 mph - N/A   Mostly Cloudy
6:35 AM 14.0 °F 2.0 °F 12.2 °F 93% 29.91 in 10.0 mi SE 9.2 mph - N/A   Scattered Clouds
6:55 AM 14.0 °F 2.0 °F 12.2 °F 93% 29.90 in 10.0 mi SE 9.2 mph - N/A   Mostly Cloudy
7:15 AM 14.0 °F 2.9 °F 12.2 °F 93% 29.90 in 10.0 mi SE 8.1 mph - N/A   Overcast
7:35 AM 14.0 °F 2.9 °F 12.2 °F 93% 29.90 in 10.0 mi SE 8.1 mph - N/A   Overcast
7:55 AM 14.0 °F 5.1 °F 10.4 °F 86% 29.90 in 10.0 mi SE 5.8 mph - N/A   Overcast
8:15 AM 14.0 °F 2.0 °F 10.4 °F 86% 29.90 in 10.0 mi ESE 9.2 mph - N/A   Mostly Cloudy
8:35 AM 14.0 °F 1.2 °F 10.4 °F 86% 29.90 in 10.0 mi ESE 10.4 mph - N/A   Clear
8:55 AM 14.0 °F 2.0 °F 10.4 °F 86% 29.89 in 10.0 mi ESE 9.2 mph - N/A   Clear
9:15 AM 14.0 °F 2.0 °F 10.4 °F 86% 29.89 in 10.0 mi ESE 9.2 mph - N/A   Clear
9:35 AM 15.8 °F 3.4 °F 12.2 °F 86% 29.89 in 10.0 mi ESE 10.4 mph - N/A   Clear
9:55 AM 15.8 °F 4.2 °F 14.0 °F 93% 29.89 in 10.0 mi SE 9.2 mph - N/A   Mostly Cloudy
10:15 AM 17.6 °F 9.3 °F 14.0 °F 86% 29.88 in 10.0 mi SE 5.8 mph - N/A   Overcast
10:35 AM 19.4 °F 11.5 °F 15.8 °F 86% 29.88 in 10.0 mi SE 5.8 mph - N/A   Scattered Clouds
11:15 AM 23.0 °F 17.0 °F 15.8 °F 74% 29.87 in 10.0 mi SSW 4.6 mph - N/A   Clear
11:35 AM 23.0 °F 15.8 °F 17.6 °F 80% 29.87 in 10.0 mi SSW 5.8 mph - N/A   Clear
11:55 AM 24.8 °F 19.1 °F 17.6 °F 74% 29.87 in 10.0 mi South 4.6 mph - N/A   Clear
12:15 PM 26.6 °F 21.2 °F 19.4 °F 74% 29.87 in 10.0 mi SSW 4.6 mph - N/A   Clear
12:35 PM 26.6 °F 20.0 °F 19.4 °F 74% 29.85 in 10.0 mi SE 5.8 mph - N/A   Clear
12:55 PM 28.4 °F 20.4 °F 19.4 °F 69% 29.85 in 10.0 mi SE 8.1 mph - N/A   Clear
1:15 PM 28.4 °F 21.2 °F 19.4 °F 69% 29.84 in 10.0 mi SE 6.9 mph - N/A   Clear
1:35 PM 30.2 °F 22.6 °F 21.2 °F 69% 29.83 in 10.0 mi SE 8.1 mph - N/A   Clear
1:55 PM 30.2 °F 24.3 °F 21.2 °F 69% 29.82 in 10.0 mi South 5.8 mph - N/A   Clear
2:15 PM 32.0 °F 24.8 °F 21.2 °F 64% 29.81 in 10.0 mi South 8.1 mph - N/A   Clear
2:35 PM 32.0 °F 24.8 °F 23.0 °F 69% 29.80 in 10.0 mi SSE 8.1 mph - N/A   Clear
2:55 PM 32.0 °F 25.6 °F 23.0 °F 69% 29.79 in 10.0 mi SSE 6.9 mph - N/A   Clear
3:15 PM 32.0 °F 25.6 °F 23.0 °F 69% 29.78 in 10.0 mi South 6.9 mph - N/A   Clear
3:35 PM 32.0 °F 25.6 °F 23.0 °F 69% 29.78 in 10.0 mi South 6.9 mph - N/A   Clear
3:55 PM 32.0 °F 23.6 °F 23.0 °F 69% 29.77 in 10.0 mi SSE 10.4 mph - N/A   Clear
4:15 PM 32.0 °F 25.6 °F 23.0 °F 69% 29.77 in 10.0 mi South 6.9 mph - N/A   Clear
4:35 PM 32.0 °F 24.2 °F 23.0 °F 69% 29.77 in 10.0 mi SSE 9.2 mph - N/A   Clear
4:55 PM 32.0 °F 26.4 °F 23.0 °F 69% 29.77 in 10.0 mi SSE 5.8 mph - N/A   Clear
5:15 PM 32.0 °F 24.8 °F 23.0 °F 69% 29.76 in 10.0 mi SSE 8.1 mph - N/A   Clear
5:35 PM 32.0 °F 24.8 °F 23.0 °F 69% 29.76 in 10.0 mi SSE 8.1 mph - N/A   Clear
5:55 PM 30.2 °F 22.6 °F 23.0 °F 75% 29.76 in 10.0 mi SE 8.1 mph - N/A   Clear
6:15 PM 28.4 °F 20.4 °F 23.0 °F 80% 29.76 in 10.0 mi SE 8.1 mph - N/A   Clear
6:35 PM 28.4 °F 19.7 °F 23.0 °F 80% 29.75 in 10.0 mi SE 9.2 mph - N/A   Clear
6:55 PM 28.4 °F 19.1 °F 23.0 °F 80% 29.75 in 10.0 mi SE 10.4 mph - N/A   Clear
7:15 PM 26.6 °F 18.2 °F 21.2 °F 80% 29.75 in 10.0 mi SE 8.1 mph - N/A   Clear
7:35 PM 26.6 °F 16.8 °F 21.2 °F 80% 29.74 in 10.0 mi SE 10.4 mph - N/A   Clear
7:55 PM 24.8 °F 13.4 °F 21.2 °F 86% 29.74 in 10.0 mi SE 12.7 mph - N/A   Clear
8:15 PM 26.6 °F 14.7 °F 23.0 °F 86% 29.73 in 10.0 mi SE 15.0 mph - N/A   Clear
8:35 PM 24.8 °F 14.0 °F 19.4 °F 80% 29.73 in 10.0 mi ESE 11.5 mph - N/A   Clear
8:55 PM 24.8 °F - 19.4 °F 80% 29.73 in 10.0 mi Calm Calm - N/A   Clear
9:15 PM 26.6 °F - 21.2 °F 80% 29.72 in 10.0 mi Calm Calm - N/A   Clear
9:35 PM 24.8 °F - 19.4 °F 80% 29.72 in 10.0 mi Calm Calm - N/A   Clear
9:55 PM 24.8 °F 19.1 °F 19.4 °F 80% 29.71 in 10.0 mi SE 4.6 mph - N/A   Clear
10:15 PM 23.0 °F - 17.6 °F 80% 29.71 in 10.0 mi Calm Calm - N/A   Clear
10:35 PM 21.2 °F - 19.4 °F 93% 29.71 in 10.0 mi Calm Calm - N/A   Clear
10:55 PM 23.0 °F - 19.4 °F 86% 29.70 in 10.0 mi Calm Calm - N/A   Clear
11:15 PM 21.2 °F - 17.6 °F 86% 29.69 in 10.0 mi Calm Calm - N/A   Clear
11:35 PM 23.0 °F - 19.4 °F 86% 29.69 in 10.0 mi Calm Calm - N/A   Clear
11:55 PM 23.0 °F - 19.4 °F 86% 29.68 in 10.0 mi Calm Calm - N/A   Clear